QPF
0.01 0.00 0.00 0.01 0.01 0.01 0.01 0.01 0.01 0.01 0.02 0.01 0.02 0.02 0.01 0.02 0.03 0.03 0.03 0.03 0.03 0.06 0.09 0.12 0.11 0.10 0.10 0.10 0.08 0.07 0.06 0.07 0.07 0.05 0.09 0.12 0.09 0.09 0.10 0.13 0.16 0.19 0.16
0.00 0.00 0.00 0.00 0.01 0.01 0.02 0.02 0.03 0.03 0.02 0.02 0.02 0.02 0.03 0.04 0.04 0.05 0.04 0.03 0.03 0.04 0.05 0.11 0.17 0.14 0.13 0.13 0.10 0.07 0.05 0.06 0.05 0.05 0.07 0.10 0.12 0.12 0.11 0.12 0.15 0.19 0.19
0.00 0.00 0.00 0.00 0.01 0.01 0.01 0.03 0.04 0.04 0.03 0.02 0.02 0.02 0.03 0.04 0.05 0.05 0.04 0.05 0.03 0.03 0.04 0.05 0.13 0.17 0.11 0.11 0.08 0.05 0.04 0.05 0.04 0.05 0.10 0.11 0.13 0.15 0.14 0.11 0.13 0.14 0.21
0.00 0.00 0.00 0.00 0.01 0.01 0.01 0.02 0.03 0.03 0.03 0.03 0.02 0.03 0.03 0.04 0.05 0.06 0.04 0.04 0.04 0.04 0.04 0.07 0.17 0.18 0.12 0.10 0.07 0.05 0.04 0.04 0.06 0.07 0.11 0.15 0.17 0.15 0.17 0.17 0.17 0.14 0.19
0.00 0.00 0.00 0.00 0.01 0.01 0.01 0.02 0.03 0.04 0.04 0.04 0.04 0.04 0.04 0.05 0.06 0.05 0.03 0.03 0.04 0.05 0.07 0.11 0.14 0.16 0.12 0.10 0.08 0.06 0.06 0.06 0.08 0.09 0.10 0.16 0.15 0.16 0.18 0.17 0.21 0.15 0.13
0.00 0.00 0.00 0.00 0.00 0.01 0.01 0.01 0.03 0.05 0.06 0.06 0.07 0.06 0.06 0.06 0.05 0.04 0.04 0.04 0.04 0.05 0.06 0.08 0.11 0.13 0.11 0.08 0.07 0.06 0.07 0.08 0.07 0.08 0.11 0.11 0.09 0.10 0.10 0.12 0.13 0.12 0.12
0.00 0.00 0.00 0.00 0.00 0.01 0.01 0.02 0.04 0.05 0.07 0.08 0.09 0.09 0.07 0.05 0.05 0.04 0.04 0.03 0.03 0.04 0.05 0.08 0.10 0.13 0.14 0.09 0.07 0.04 0.06 0.08 0.06 0.05 0.07 0.07 0.07 0.06 0.07 0.07 0.08 0.09 0.09
0.00 0.00 0.00 0.00 0.00 0.01 0.01 0.02 0.03 0.06 0.08 0.12 0.12 0.15 0.11 0.08 0.06 0.05 0.05 0.06 0.06 0.04 0.04 0.05 0.07 0.08 0.11 0.10 0.07 0.04 0.06 0.08 0.08 0.09 0.06 0.05 0.05 0.03 0.05 0.06 0.06 0.06 0.06
0.00 0.00 0.00 0.01 0.00 0.01 0.01 0.01 0.02 0.04 0.08 0.11 0.15 0.19 0.15 0.11 0.11 0.09 0.08 0.07 0.06 0.06 0.04 0.04 0.04 0.04 0.06 0.07 0.06 0.05 0.06 0.08 0.11 0.11 0.07 0.05 0.03 0.03 0.03 0.04 0.05 0.06 0.07
0.00 0.00 0.01 0.01 0.01 0.01 0.01 0.01 0.02 0.03 0.04 0.07 0.10 0.12 0.10 0.10 0.11 0.11 0.09 0.07 0.05 0.05 0.05 0.04 0.03 0.03 0.03 0.04 0.05 0.04 0.06 0.10 0.13 0.13 0.11 0.08 0.04 0.03 0.03 0.03 0.04 0.07 0.12
0.00 0.01 0.01 0.01 0.01 0.01 0.01 0.01 0.01 0.02 0.03 0.04 0.06 0.07 0.09 0.09 0.08 0.11 0.08 0.07 0.07 0.06 0.07 0.06 0.05 0.04 0.03 0.03 0.03 0.03 0.06 0.09 0.14 0.14 0.10 0.09 0.07 0.04 0.04 0.04 0.06 0.07 0.10
0.01 0.01 0.01 0.01 0.01 0.01 0.02 0.02 0.02 0.03 0.03 0.05 0.06 0.05 0.08 0.08 0.07 0.06 0.06 0.08 0.10 0.08 0.10 0.12 0.12 0.10 0.06 0.04 0.04 0.03 0.05 0.08 0.15 0.14 0.08 0.07 0.05 0.04 0.04 0.07 0.09 0.07 0.09
0.02 0.02 0.01 0.01 0.01 0.02 0.03 0.02 0.02 0.03 0.04 0.06 0.06 0.05 0.05 0.05 0.05 0.06 0.07 0.11 0.11 0.09 0.09 0.11 0.12 0.12 0.09 0.08 0.08 0.05 0.04 0.05 0.09 0.11 0.09 0.07 0.06 0.05 0.04 0.05 0.07 0.07 0.07
0.02 0.02 0.01 0.01 0.01 0.02 0.02 0.02 0.02 0.04 0.05 0.05 0.05 0.04 0.04 0.04 0.05 0.04 0.06 0.07 0.08 0.08 0.09 0.10 0.09 0.11 0.13 0.11 0.07 0.04 0.03 0.03 0.05 0.08 0.10 0.07 0.07 0.05 0.05 0.05 0.06 0.09 0.10
0.02 0.02 0.02 0.02 0.02 0.03 0.02 0.02 0.02 0.05 0.06 0.05 0.05 0.03 0.03 0.04 0.03 0.03 0.05 0.06 0.05 0.05 0.05 0.06 0.05 0.06 0.08 0.08 0.08 0.05 0.03 0.03 0.03 0.05 0.08 0.07 0.06 0.06 0.06 0.06 0.05 0.05 0.05
0.02 0.03 0.03 0.02 0.03 0.04 0.03 0.03 0.04 0.06 0.08 0.06 0.04 0.03 0.03 0.03 0.04 0.04 0.05 0.06 0.04 0.03 0.03 0.03 0.03 0.05 0.07 0.09 0.11 0.07 0.04 0.05 0.05 0.05 0.06 0.07 0.06 0.06 0.05 0.05 0.05 0.05 0.05
0.04 0.03 0.02 0.02 0.02 0.03 0.02 0.02 0.03 0.06 0.08 0.05 0.03 0.03 0.03 0.03 0.05 0.05 0.05 0.05 0.05 0.04 0.03 0.02 0.03 0.04 0.05 0.06 0.07 0.07 0.06 0.07 0.07 0.07 0.06 0.06 0.07 0.05 0.05 0.04 0.04 0.04 0.03
0.02 0.03 0.03 0.02 0.02 0.02 0.01 0.01 0.02 0.03 0.06 0.06 0.04 0.02 0.02 0.03 0.04 0.05 0.04 0.04 0.04 0.05 0.05 0.05 0.05 0.05 0.04 0.06 0.06 0.06 0.08 0.09 0.08 0.07 0.05 0.03 0.05 0.05 0.04 0.04 0.03 0.03 0.03
0.03 0.02 0.03 0.03 0.02 0.02 0.02 0.02 0.03 0.04 0.05 0.06 0.06 0.04 0.03 0.03 0.03 0.04 0.03 0.02 0.02 0.03 0.05 0.05 0.05 0.05 0.04 0.05 0.07 0.08 0.09 0.10 0.09 0.07 0.06 0.04 0.04 0.05 0.05 0.04 0.04 0.03 0.03
0.04 0.03 0.03 0.03 0.03 0.03 0.04 0.05 0.05 0.05 0.06 0.08 0.07 0.06 0.04 0.04 0.04 0.05 0.04 0.02 0.02 0.02 0.03 0.04 0.05 0.05 0.05 0.05 0.04 0.06 0.07 0.08 0.09 0.09 0.08 0.05 0.04 0.04 0.05 0.04 0.04 0.03 0.02
0.02 0.02 0.04 0.04 0.04 0.03 0.03 0.03 0.04 0.05 0.05 0.08 0.07 0.03 0.04 0.05 0.06 0.07 0.06 0.05 0.04 0.03 0.04 0.04 0.03 0.03 0.04 0.04 0.04 0.05 0.04 0.04 0.06 0.07 0.07 0.05 0.05 0.04 0.04 0.05 0.04 0.03 0.02
0.01 0.02 0.02 0.04 0.04 0.03 0.03 0.04 0.04 0.06 0.06 0.06 0.07 0.06 0.05 0.06 0.07 0.07 0.08 0.06 0.04 0.04 0.04 0.04 0.04 0.04 0.03 0.03 0.04 0.06 0.06 0.06 0.06 0.06 0.05 0.05 0.05 0.05 0.04 0.05 0.04 0.04 0.03
0.01 0.01 0.01 0.02 0.04 0.05 0.05 0.05 0.05 0.08 0.09 0.08 0.08 0.07 0.06 0.05 0.05 0.06 0.05 0.05 0.04 0.03 0.04 0.04 0.04 0.04 0.04 0.04 0.05 0.07 0.08 0.09 0.09 0.09 0.06 0.05 0.05 0.05 0.05 0.05 0.06 0.07 0.04
0.01 0.01 0.01 0.03 0.04 0.04 0.05 0.05 0.05 0.05 0.06 0.06 0.07 0.06 0.05 0.04 0.05 0.04 0.04 0.04 0.04 0.05 0.06 0.04 0.03 0.05 0.06 0.06 0.07 0.07 0.07 0.08 0.10 0.12 0.10 0.08 0.08 0.07 0.05 0.05 0.06 0.07 0.05
0.01 0.01 0.01 0.02 0.02 0.02 0.03 0.04 0.04 0.06 0.07 0.06 0.07 0.05 0.04 0.03 0.03 0.03 0.04 0.04 0.05 0.06 0.07 0.06 0.06 0.04 0.04 0.06 0.08 0.08 0.08 0.09 0.10 0.11 0.10 0.09 0.09 0.07 0.06 0.05 0.06 0.08 0.07
0.01 0.01 0.01 0.02 0.01 0.01 0.02 0.04 0.04 0.06 0.06 0.05 0.05 0.04 0.04 0.04 0.04 0.04 0.04 0.04 0.04 0.05 0.05 0.06 0.06 0.05 0.05 0.07 0.09 0.10 0.11 0.11 0.12 0.12 0.11 0.11 0.10 0.07 0.06 0.05 0.05 0.07 0.08
MSLP
1006.45 1006.44 1006.60 1006.93 1007.36 1007.82 1008.23 1008.53 1008.71 1008.80 1008.83 1008.87 1008.95 1009.10 1009.31 1009.56 1009.79 1009.98 1010.12 1010.21 1010.27 1010.35 1010.45 1010.61 1010.82 1011.06 1011.28 1011.47 1011.60 1011.67 1011.70 1011.72 1011.76 1011.86 1012.04 1012.28 1012.57 1012.89 1013.21 1013.51 1013.79 1014.03 1014.26
1006.54 1006.65 1006.95 1007.39 1007.89 1008.38 1008.76 1009.00 1009.11 1009.12 1009.09 1009.10 1009.18 1009.36 1009.61 1009.91 1010.18 1010.40 1010.54 1010.61 1010.64 1010.67 1010.72 1010.82 1010.97 1011.13 1011.29 1011.41 1011.48 1011.52 1011.54 1011.57 1011.66 1011.82 1012.06 1012.36 1012.69 1013.03 1013.35 1013.65 1013.91 1014.16 1014.40
1006.57 1006.81 1007.23 1007.77 1008.35 1008.86 1009.24 1009.44 1009.50 1009.46 1009.39 1009.38 1009.47 1009.67 1009.95 1010.26 1010.54 1010.76 1010.89 1010.94 1010.94 1010.94 1010.96 1011.03 1011.13 1011.24 1011.34 1011.40 1011.43 1011.43 1011.43 1011.47 1011.59 1011.80 1012.09 1012.43 1012.80 1013.16 1013.49 1013.77 1014.03 1014.28 1014.55
1006.50 1006.84 1007.37 1008.01 1008.65 1009.20 1009.59 1009.79 1009.83 1009.78 1009.71 1009.71 1009.81 1010.02 1010.30 1010.61 1010.87 1011.07 1011.17 1011.20 1011.19 1011.18 1011.20 1011.26 1011.35 1011.44 1011.50 1011.52 1011.50 1011.46 1011.43 1011.47 1011.60 1011.84 1012.16 1012.54 1012.93 1013.30 1013.63 1013.91 1014.17 1014.43 1014.71
1006.33 1006.76 1007.38 1008.09 1008.79 1009.38 1009.80 1010.02 1010.09 1010.06 1010.03 1010.06 1010.18 1010.40 1010.68 1010.96 1011.19 1011.35 1011.41 1011.42 1011.41 1011.42 1011.46 1011.55 1011.66 1011.75 1011.80 1011.78 1011.71 1011.63 1011.58 1011.60 1011.72 1011.97 1012.31 1012.70 1013.11 1013.48 1013.80 1014.07 1014.32 1014.57 1014.87
1006.12 1006.62 1007.30 1008.06 1008.80 1009.43 1009.88 1010.14 1010.26 1010.29 1010.31 1010.40 1010.56 1010.80 1011.07 1011.32 1011.51 1011.62 1011.65 1011.64 1011.64 1011.67 1011.76 1011.89 1012.04 1012.15 1012.19 1012.16 1012.06 1011.93 1011.85 1011.84 1011.95 1012.20 1012.54 1012.94 1013.34 1013.70 1014.00 1014.24 1014.47 1014.71 1015.00
1005.97 1006.51 1007.21 1008.00 1008.76 1009.40 1009.88 1010.19 1010.36 1010.46 1010.56 1010.71 1010.93 1011.19 1011.45 1011.68 1011.83 1011.90 1011.90 1011.88 1011.89 1011.95 1012.09 1012.27 1012.45 1012.58 1012.63 1012.58 1012.46 1012.31 1012.19 1012.16 1012.27 1012.51 1012.86 1013.25 1013.64 1013.97 1014.24 1014.44 1014.63 1014.83 1015.09
1005.95 1006.50 1007.21 1007.99 1008.74 1009.39 1009.87 1010.21 1010.43 1010.59 1010.77 1010.99 1011.26 1011.55 1011.82 1012.03 1012.15 1012.19 1012.17 1012.14 1012.15 1012.24 1012.41 1012.62 1012.83 1012.98 1013.03 1012.98 1012.84 1012.67 1012.54 1012.52 1012.62 1012.87 1013.22 1013.61 1013.99 1014.29 1014.52 1014.67 1014.79 1014.93 1015.13
1006.08 1006.65 1007.35 1008.11 1008.83 1009.44 1009.91 1010.25 1010.49 1010.70 1010.94 1011.21 1011.53 1011.86 1012.15 1012.36 1012.47 1012.48 1012.45 1012.41 1012.43 1012.52 1012.70 1012.92 1013.14 1013.29 1013.34 1013.28 1013.13 1012.97 1012.85 1012.84 1012.97 1013.24 1013.61 1014.01 1014.37 1014.65 1014.83 1014.92 1014.96 1015.02 1015.15
1006.37 1006.94 1007.63 1008.36 1009.03 1009.59 1010.01 1010.33 1010.57 1010.80 1011.06 1011.38 1011.73 1012.09 1012.40 1012.63 1012.74 1012.76 1012.72 1012.68 1012.69 1012.77 1012.94 1013.14 1013.34 1013.47 1013.51 1013.44 1013.31 1013.17 1013.08 1013.11 1013.29 1013.60 1013.99 1014.41 1014.77 1015.03 1015.17 1015.19 1015.16 1015.14 1015.19
1006.73 1007.33 1008.00 1008.69 1009.30 1009.80 1010.17 1010.44 1010.65 1010.87 1011.13 1011.47 1011.85 1012.23 1012.57 1012.82 1012.96 1013.00 1012.97 1012.93 1012.93 1012.99 1013.12 1013.29 1013.45 1013.55 1013.57 1013.50 1013.39 1013.28 1013.25 1013.34 1013.56 1013.92 1014.36 1014.80 1015.16 1015.41 1015.51 1015.50 1015.41 1015.31 1015.29
1007.09 1007.71 1008.38 1009.03 1009.59 1010.03 1010.34 1010.55 1010.72 1010.91 1011.16 1011.49 1011.88 1012.29 1012.65 1012.93 1013.11 1013.18 1013.17 1013.15 1013.14 1013.18 1013.28 1013.40 1013.51 1013.57 1013.57 1013.51 1013.42 1013.36 1013.39 1013.53 1013.82 1014.23 1014.69 1015.15 1015.52 1015.76 1015.85 1015.81 1015.69 1015.55 1015.47
1007.38 1008.02 1008.68 1009.31 1009.83 1010.22 1010.48 1010.64 1010.77 1010.93 1011.15 1011.47 1011.85 1012.26 1012.65 1012.96 1013.18 1013.29 1013.33 1013.33 1013.33 1013.36 1013.42 1013.49 1013.56 1013.60 1013.58 1013.53 1013.48 1013.47 1013.54 1013.75 1014.08 1014.51 1014.99 1015.45 1015.82 1016.06 1016.15 1016.11 1015.99 1015.85 1015.75
1007.56 1008.20 1008.86 1009.47 1009.97 1010.33 1010.56 1010.70 1010.80 1010.93 1011.13 1011.42 1011.78 1012.19 1012.59 1012.93 1013.19 1013.36 1013.44 1013.48 1013.50 1013.53 1013.57 1013.62 1013.66 1013.67 1013.66 1013.63 1013.61 1013.64 1013.76 1014.00 1014.34 1014.77 1015.24 1015.68 1016.04 1016.27 1016.37 1016.35 1016.26 1016.15 1016.07
1007.63 1008.27 1008.91 1009.50 1009.99 1010.35 1010.58 1010.72 1010.81 1010.93 1011.11 1011.37 1011.71 1012.10 1012.50 1012.86 1013.15 1013.37 1013.51 1013.60 1013.66 1013.71 1013.75 1013.79 1013.82 1013.83 1013.83 1013.82 1013.84 1013.91 1014.05 1014.29 1014.62 1015.02 1015.43 1015.81 1016.13 1016.35 1016.46 1016.48 1016.45 1016.40 1016.38
1007.64 1008.25 1008.86 1009.44 1009.92 1010.29 1010.54 1010.71 1010.83 1010.96 1011.13 1011.37 1011.68 1012.04 1012.42 1012.78 1013.10 1013.36 1013.55 1013.70 1013.80 1013.88 1013.95 1014.00 1014.04 1014.07 1014.09 1014.11 1014.16 1014.25 1014.41 1014.62 1014.90 1015.22 1015.54 1015.84 1016.09 1016.27 1016.39 1016.46 1016.50 1016.54 1016.59
1007.64 1008.20 1008.78 1009.33 1009.81 1010.20 1010.50 1010.71 1010.88 1011.03 1011.20 1011.43 1011.70 1012.02 1012.37 1012.72 1013.04 1013.33 1013.57 1013.77 1013.92 1014.04 1014.14 1014.22 1014.29 1014.34 1014.39 1014.45 1014.53 1014.64 1014.78 1014.95 1015.15 1015.36 1015.57 1015.75 1015.91 1016.04 1016.15 1016.26 1016.37 1016.50 1016.64
1007.67 1008.18 1008.71 1009.22 1009.70 1010.12 1010.46 1010.73 1010.95 1011.14 1011.33 1011.54 1011.78 1012.06 1012.36 1012.68 1013.00 1013.30 1013.58 1013.82 1014.02 1014.18 1014.32 1014.43 1014.52 1014.61 1014.69 1014.78 1014.88 1015.00 1015.12 1015.24 1015.36 1015.45 1015.52 1015.57 1015.62 1015.68 1015.76 1015.89 1016.07 1016.29 1016.52
1007.75 1008.20 1008.67 1009.15 1009.62 1010.05 1010.44 1010.77 1011.05 1011.29 1011.50 1011.70 1011.91 1012.14 1012.40 1012.68 1012.98 1013.29 1013.58 1013.86 1014.10 1014.30 1014.47 1014.60 1014.72 1014.83 1014.94 1015.06 1015.18 1015.30 1015.40 1015.47 1015.50 1015.48 1015.43 1015.35 1015.28 1015.25 1015.29 1015.42 1015.65 1015.93 1016.24
1007.82 1008.24 1008.66 1009.10 1009.55 1010.00 1010.42 1010.81 1011.15 1011.43 1011.66 1011.86 1012.05 1012.24 1012.46 1012.71 1012.99 1013.29 1013.60 1013.89 1014.16 1014.39 1014.58 1014.73 1014.86 1014.98 1015.11 1015.25 1015.39 1015.51 1015.61 1015.64 1015.61 1015.50 1015.32 1015.12 1014.94 1014.82 1014.81 1014.92 1015.16 1015.48 1015.84
1007.84 1008.25 1008.64 1009.05 1009.48 1009.93 1010.39 1010.82 1011.20 1011.53 1011.79 1012.00 1012.17 1012.33 1012.52 1012.74 1013.00 1013.30 1013.62 1013.93 1014.22 1014.47 1014.66 1014.82 1014.95 1015.07 1015.20 1015.35 1015.50 1015.64 1015.74 1015.76 1015.69 1015.52 1015.26 1014.97 1014.69 1014.48 1014.40 1014.47 1014.69 1015.03 1015.41
1007.73 1008.15 1008.54 1008.94 1009.36 1009.82 1010.29 1010.76 1011.19 1011.56 1011.85 1012.07 1012.24 1012.39 1012.55 1012.76 1013.01 1013.31 1013.65 1013.97 1014.28 1014.53 1014.73 1014.88 1014.99 1015.10 1015.23 1015.38 1015.54 1015.70 1015.82 1015.85 1015.78 1015.58 1015.28 1014.92 1014.56 1014.27 1014.12 1014.13 1014.31 1014.63 1015.01
1007.44 1007.91 1008.32 1008.72 1009.15 1009.62 1010.12 1010.63 1011.10 1011.50 1011.82 1012.06 1012.24 1012.39 1012.54 1012.74 1012.99 1013.30 1013.65 1013.99 1014.31 1014.57 1014.77 1014.90 1015.00 1015.09 1015.20 1015.35 1015.53 1015.71 1015.86 1015.93 1015.88 1015.69 1015.38 1014.99 1014.59 1014.23 1014.00 1013.94 1014.06 1014.33 1014.68
1006.94 1007.48 1007.94 1008.38 1008.84 1009.34 1009.87 1010.41 1010.92 1011.37 1011.72 1011.97 1012.16 1012.31 1012.46 1012.66 1012.92 1013.23 1013.59 1013.96 1014.29 1014.56 1014.75 1014.88 1014.96 1015.04 1015.13 1015.28 1015.47 1015.68 1015.86 1015.98 1015.99 1015.84 1015.56 1015.17 1014.73 1014.33 1014.04 1013.90 1013.95 1014.15 1014.45
1006.26 1006.88 1007.41 1007.91 1008.42 1008.96 1009.54 1010.13 1010.68 1011.16 1011.54 1011.82 1012.01 1012.16 1012.31 1012.50 1012.75 1013.08 1013.45 1013.83 1014.18 1014.46 1014.66 1014.79 1014.86 1014.92 1015.01 1015.15 1015.34 1015.58 1015.81 1015.99 1016.06 1015.98 1015.74 1015.38 1014.95 1014.52 1014.17 1013.96 1013.93 1014.05 1014.28
1005.43 1006.14 1006.76 1007.33 1007.90 1008.51 1009.15 1009.79 1010.39 1010.91 1011.31 1011.60 1011.80 1011.93 1012.07 1012.24 1012.48 1012.80 1013.18 1013.57 1013.94 1014.24 1014.46 1014.59 1014.66 1014.72 1014.80 1014.94 1015.14 1015.40 1015.68 1015.91 1016.05 1016.04 1015.87 1015.55 1015.15 1014.71 1014.33 1014.06 1013.95 1013.99 1014.15
Thickness
5820 5817 5810 5806 5803 5800 5797 5795 5793 5791 5789 5787 5785 5784 5782 5781 5780 5779 5777 5776 5774 5773 5771 5770 5769 5768 5767 5767 5766 5765 5764 5764 5763 5762 5761 5761 5759 5758 5757 5755 5754 5753 5751
5824 5816 5809 5805 5801 5798 5795 5793 5790 5788 5786 5784 5783 5781 5780 5778 5778 5777 5775 5773 5772 5770 5769 5768 5767 5766 5765 5764 5764 5763 5762 5762 5761 5761 5760 5759 5758 5757 5756 5754 5753 5751 5750
5823 5815 5808 5803 5799 5796 5793 5791 5788 5785 5783 5782 5780 5779 5777 5776 5775 5774 5773 5771 5769 5768 5767 5766 5765 5764 5763 5762 5761 5761 5760 5760 5760 5760 5759 5758 5757 5756 5754 5753 5751 5750 5748
5824 5815 5808 5801 5798 5794 5791 5789 5786 5783 5781 5780 5778 5777 5775 5774 5773 5772 5770 5769 5767 5767 5766 5764 5764 5762 5761 5760 5760 5759 5759 5759 5759 5759 5759 5758 5756 5754 5753 5752 5750 5748 5747
5824 5815 5805 5800 5796 5793 5789 5787 5784 5781 5779 5778 5777 5775 5774 5772 5771 5770 5768 5767 5765 5764 5763 5763 5762 5760 5759 5759 5758 5758 5758 5758 5759 5759 5758 5757 5755 5753 5752 5751 5749 5747 5746
5822 5813 5804 5799 5795 5791 5788 5785 5782 5780 5778 5776 5775 5773 5772 5770 5768 5767 5766 5764 5763 5762 5761 5761 5760 5759 5758 5757 5757 5757 5758 5758 5758 5758 5758 5757 5755 5752 5751 5750 5748 5746 5745
5820 5812 5802 5797 5793 5789 5786 5783 5781 5778 5776 5774 5772 5771 5770 5768 5767 5765 5764 5762 5761 5760 5760 5759 5758 5757 5757 5757 5757 5756 5757 5758 5758 5758 5758 5757 5754 5752 5751 5749 5747 5746 5744
5819 5810 5801 5795 5792 5788 5785 5782 5779 5777 5774 5772 5770 5769 5768 5767 5765 5764 5762 5761 5759 5758 5758 5757 5757 5756 5756 5756 5756 5756 5756 5757 5758 5758 5757 5755 5753 5751 5750 5748 5746 5745 5743
5819 5810 5802 5795 5790 5787 5783 5781 5778 5775 5772 5770 5769 5768 5767 5765 5764 5762 5761 5759 5758 5757 5756 5756 5755 5755 5755 5755 5756 5756 5756 5756 5757 5757 5756 5754 5752 5751 5749 5748 5746 5744 5743
5817 5810 5803 5798 5792 5788 5783 5780 5777 5774 5771 5769 5768 5766 5765 5764 5762 5760 5759 5757 5756 5756 5755 5754 5754 5754 5754 5754 5755 5755 5755 5755 5755 5755 5754 5752 5751 5750 5749 5747 5746 5744 5742
5812 5809 5805 5799 5794 5790 5786 5780 5776 5773 5770 5768 5766 5765 5764 5763 5761 5759 5758 5756 5756 5755 5755 5754 5753 5753 5753 5753 5754 5754 5754 5754 5755 5753 5752 5751 5749 5748 5747 5746 5745 5743 5741
5806 5806 5805 5801 5796 5791 5787 5781 5777 5774 5770 5768 5766 5765 5763 5762 5761 5759 5757 5756 5755 5755 5754 5753 5753 5753 5752 5753 5754 5754 5754 5755 5755 5752 5750 5749 5748 5747 5745 5744 5743 5742 5740
5806 5804 5803 5800 5796 5792 5787 5782 5779 5776 5771 5768 5766 5765 5763 5762 5760 5758 5756 5755 5754 5754 5753 5753 5752 5753 5753 5753 5754 5754 5755 5755 5754 5752 5749 5747 5746 5745 5744 5742 5741 5739 5738
5805 5802 5800 5798 5794 5791 5787 5783 5779 5776 5772 5769 5766 5764 5763 5761 5760 5758 5756 5755 5754 5754 5754 5753 5752 5752 5753 5753 5753 5754 5754 5754 5753 5751 5747 5746 5744 5743 5742 5740 5739 5737 5736
5803 5801 5798 5795 5791 5787 5784 5781 5779 5775 5772 5768 5765 5763 5762 5761 5759 5757 5756 5755 5754 5754 5753 5752 5752 5752 5752 5752 5752 5752 5752 5753 5751 5749 5746 5745 5743 5741 5740 5738 5737 5735 5734
5801 5799 5796 5792 5788 5784 5780 5778 5776 5774 5771 5768 5765 5762 5761 5759 5757 5756 5754 5754 5753 5753 5752 5751 5750 5750 5750 5750 5750 5750 5750 5751 5750 5748 5746 5743 5742 5740 5738 5736 5735 5733 5732
5799 5797 5793 5789 5786 5782 5778 5776 5774 5772 5769 5766 5763 5761 5759 5758 5756 5754 5752 5751 5751 5751 5750 5749 5749 5748 5748 5748 5747 5747 5748 5748 5747 5746 5745 5743 5740 5738 5736 5734 5733 5731 5730
5798 5794 5790 5788 5783 5779 5776 5773 5772 5770 5767 5764 5761 5759 5757 5755 5754 5752 5750 5749 5749 5749 5748 5747 5746 5745 5744 5744 5744 5745 5746 5745 5745 5745 5744 5742 5740 5738 5735 5733 5731 5730 5729
5795 5790 5786 5784 5780 5777 5774 5771 5770 5768 5765 5762 5760 5757 5754 5753 5751 5749 5748 5746 5747 5746 5745 5745 5742 5742 5740 5740 5741 5742 5743 5743 5743 5743 5742 5741 5739 5737 5734 5732 5730 5728 5727
5792 5787 5783 5781 5777 5774 5771 5768 5766 5763 5761 5760 5758 5755 5753 5750 5749 5747 5746 5744 5744 5743 5741 5741 5739 5739 5738 5738 5740 5740 5741 5742 5742 5740 5739 5739 5737 5736 5734 5732 5729 5727 5725
5787 5783 5779 5776 5773 5770 5766 5763 5760 5758 5757 5757 5755 5753 5750 5748 5746 5745 5744 5742 5741 5740 5738 5738 5737 5736 5735 5737 5734 5733 5736 5740 5739 5739 5738 5737 5735 5735 5733 5731 5729 5727 5725
5782 5779 5775 5772 5770 5768 5765 5763 5761 5758 5756 5755 5752 5750 5748 5746 5744 5743 5740 5739 5738 5737 5736 5735 5734 5732 5733 5734 5730 5726 5723 5726 5732 5736 5735 5734 5734 5733 5731 5730 5729 5727 5725
5778 5775 5773 5768 5766 5764 5763 5762 5759 5755 5753 5750 5747 5745 5745 5743 5741 5740 5738 5738 5736 5735 5733 5732 5731 5729 5727 5730 5730 5724 5717 5716 5721 5728 5731 5731 5731 5730 5729 5728 5727 5725 5723
5776 5774 5771 5766 5763 5761 5760 5758 5754 5750 5746 5746 5745 5743 5742 5741 5739 5738 5736 5735 5734 5733 5731 5730 5729 5728 5725 5723 5725 5725 5723 5721 5715 5715 5721 5725 5726 5726 5725 5725 5724 5722 5721
5775 5771 5767 5764 5760 5758 5757 5755 5752 5749 5747 5746 5744 5741 5739 5738 5737 5736 5734 5733 5731 5729 5728 5727 5726 5725 5723 5721 5720 5720 5720 5719 5718 5712 5710 5715 5718 5721 5722 5721 5720 5719 5718
5772 5768 5764 5759 5756 5755 5754 5752 5749 5746 5744 5742 5739 5736 5735 5734 5733 5732 5732 5730 5728 5726 5725 5724 5723 5722 5720 5719 5718 5718 5716 5714 5712 5711 5708 5709 5710 5713 5717 5717 5716 5715 5715